Regional Weather Roundup
Issued by NWS

Home | Current Version | Previous Version | Text Only | Print | Product List | Glossary Off
Versions: 1 2 3 4 5 6 7 8 9 10 11 12 13 14 15 16 17 18 19 20 21 22 23 24 25 26 27 28 29 30 31 32 33 34 35 36 37 38 39 40 41 42 43 44 45 46 47 48 49 50

000
ASUS44 KOUN 221010
RWROK

WEATHER ROUNDUP FOR OKLAHOMA
NATIONAL WEATHER SERVICE NORMAN OK
400 AM CST MON JAN 22 2018

NOTE: "FAIR" INDICATES FEW OR NO CLOUDS BELOW 12,000 FEET WITH NO
      SIGNIFICANT WEATHER AND/OR OBSTRUCTIONS TO VISIBILITY.

OKZ001>007-009>012-014-015-017-221100-
NORTHWEST OKLAHOMA AND THE PANHANDLE

CITY           SKY/WX    TMP DP  RH WIND       PRES   REMARKS
GAGE           PTCLDY    34  23  64 W21G31    29.78R WCI  22
GUYMON         CLEAR     31  22  69 NW21G33   29.86R WCI  18
ENID/WOODRING  PTCLDY    39  28  65 W24G41    29.68R WCI  28
$$

OKZ016-021>023-033>039-044-045-221100-
SOUTHWEST OKLAHOMA

CITY           SKY/WX    TMP DP  RH WIND       PRES   REMARKS
LAWTON/REGL    CLEAR     36  25  64 W8        29.88R WCI  30
LAWTON/FT SILL PTCLDY    37  27  66 W7        29.86R WCI  32
FREDERICK      PTCLDY    39  23  52 W17       29.87S WCI  30
CLINTON        CLEAR     35  22  58 W20       29.84R WCI  24
HOBART         PTCLDY    37  23  56 W20       29.86S WCI  27
ALTUS AFB      PTCLDY    36  20  52 W13       29.90R WCI  28
$$

OKZ018>020-024>031-221100-
CENTRAL OKLAHOMA

CITY           SKY/WX    TMP DP  RH WIND       PRES   REMARKS
OKLAHOMA CITY  PTCLDY    37  25  61 W17       29.78R WCI  27
OKC/WILEY POST CLEAR     38  27  64 W14       29.77R WCI  30
OKC/TINKER AFB PTCLDY    39  26  59 W17G25    29.76S WCI  29
STILLWATER     CLEAR     38  26  62 W16       29.70R WCI  29
GUTHRIE        CLEAR     39  26  59 W17       29.74R WCI  30
$$

OKZ008-013-054>072-221100-
NORTHEAST OKLAHOMA

CITY           SKY/WX    TMP DP  RH WIND       PRES   REMARKS
TULSA          CLEAR     43  29  57 W22G32    29.69R WCI  34
TULSA/JONES    PTCLDY    43  28  55 W12G23    29.71R
PONCA CITY     PTCLDY    38  28  67 W17G24    29.64R WCI  28
BARTLESVILLE   PTCLDY    40  28  62 SW14G22   29.65S WCI  32
MUSKOGEE       CLEAR     44  30  57 W18       29.74R
$$

OKZ032-040>043-046>053-073>077-221100-
SOUTH CENTRAL/SOUTHEAST OKLAHOMA

CITY           SKY/WX    TMP DP  RH WIND       PRES   REMARKS
ARDMORE/DWNTWN CLEAR     41  27  56 NW7       29.87R
MCALESTER      PTCLDY    45  28  51 W12       29.78R
$$





USA.gov is the U.S. government's official web portal to all federal, state and local government web resources and services.